Location: Unspecified
(29.9680°N, 0.0000°E)
Time: 10:35:31
(UTC+00:00)

A-11 Canister half - Pass Details

Date: 19 June 2019
Orbit: 1526 x 1683 km, 47.3° (Epoch: 18 July)

Event Time Altitude Azimuth Distance (km) Brightness Sun altitude
Rises 14:16:21 0° 292° (WNW) 4,703 12.0 59.3°
Reaches altitude 10° 14:20:34 10° 275° (W) 3,738 11.7 58.4°
Maximum altitude 14:26:32 19° 235° (SW) 3,129 11.4 57.1°
Drops below altitude 10° 14:32:37 10° 195° (SSW) 3,805 11.3 55.7°
Sets 14:37:02 0° 178° (S) 4,817 11.6 54.8°
